EDW66 LSZH-VRMM

Flight info

Callsign EDW66
Flight time N/A
Altitude 31000
Route VEBIT T53 GERSA Z50 RESIA DCT PEVAL DCT CRE DCT NILKU DCT MEDUX UM867 KOGAT DCT ERANA DCT TSL UN130 MES UL609 RDS DCT VANZA DCT LAKTO/N0467F370 L560 SERMA L550 KARIK B411 DEESA Y415 TAMRO N318 DASVA N685 TOSNA DCT LABRI N318 TOLDA P570 KITAL L894 ELBET ELBET1A
Aircraft A343/H-SDE2E3FGHIJ4J5M1RWXY/LB1D1

Departure

Time 2026-02-20 22:45
Airport Zürich Airport (LSZH)

Arrival

Time N/A
Airport Velana International Airport (VRMM)
Time Latitude Longitude Altitude Speed Heading
2026-02-20 22:17 47.46186 8.55397 1409 ft 0 kts 186°
2026-02-20 22:31 47.46199 8.55399 1409 ft 3 kts 186°
2026-02-20 22:32 47.46218 8.55402 1410 ft 2 kts 186°
2026-02-20 22:32 47.46237 8.55406 1406 ft 3 kts 200°
2026-02-20 22:32 47.46253 8.55419 1410 ft 3 kts 234°
2026-02-20 22:32 47.46260 8.55443 1408 ft 3 kts 271°
2026-02-20 22:33 47.46258 8.55472 1410 ft 3 kts 281°
2026-02-20 22:33 47.46256 8.55490 1406 ft 0 kts 276°
2026-02-20 22:37 47.46256 8.55485 1405 ft 2 kts 276°
2026-02-20 22:37 47.46259 8.55446 1407 ft 6 kts 276°
2026-02-20 22:37 47.46265 8.55364 1406 ft 10 kts 276°
2026-02-20 22:38 47.46274 8.55246 1397 ft 13 kts 276°
2026-02-20 22:38 47.46284 8.55095 1401 ft 16 kts 275°
2026-02-20 22:38 47.46295 8.54930 1401 ft 16 kts 275°
2026-02-20 22:38 47.46281 8.54808 1385 ft 6 kts 217°
2026-02-20 22:39 47.46226 8.54799 1400 ft 10 kts 165°
2026-02-20 22:39 47.46148 8.54852 1401 ft 15 kts 155°
2026-02-20 22:39 47.46041 8.54926 1398 ft 18 kts 155°
2026-02-20 22:39 47.45938 8.54997 1404 ft 15 kts 155°
2026-02-20 22:40 47.45847 8.55059 1406 ft 14 kts 155°
2026-02-20 22:40 47.45748 8.55126 1406 ft 18 kts 155°
2026-02-20 22:40 47.45626 8.55212 1408 ft 20 kts 154°
2026-02-20 22:40 47.45503 8.55300 1408 ft 19 kts 154°
2026-02-20 22:41 47.45393 8.55377 1411 ft 17 kts 155°
2026-02-20 22:41 47.45291 8.55445 1410 ft 16 kts 156°
2026-02-20 22:41 47.45194 8.55511 1412 ft 15 kts 155°
2026-02-20 22:42 47.44982 8.55656 1409 ft 20 kts 155°
2026-02-20 22:42 47.44850 8.55745 1406 ft 21 kts 155°
2026-02-20 22:42 47.44718 8.55834 1408 ft 21 kts 155°
2026-02-20 22:42 47.44635 8.55830 1407 ft 9 kts 216°
2026-02-20 22:43 47.44602 8.55770 1405 ft 9 kts 244°
2026-02-20 22:43 47.44584 8.55670 1405 ft 8 kts 289°
2026-02-20 22:43 47.44631 8.55620 1405 ft 10 kts 331°
2026-02-20 22:43 47.44657 8.55602 1407 ft 0 kts 334°
2026-02-20 22:44 47.44659 8.55600 1407 ft 6 kts 334°
2026-02-20 22:44 47.44864 8.55458 1407 ft 60 kts 335°
2026-02-20 22:44 47.45395 8.55091 1407 ft 108 kts 335°
2026-02-20 22:45 47.46210 8.54532 1402 ft 149 kts 335°
2026-02-20 22:45 47.47255 8.53807 1421 ft 181 kts 333°
2026-02-20 22:45 47.48330 8.53061 2134 ft 162 kts 331°
2026-02-20 22:45 47.49357 8.52336 2515 ft 165 kts 334°
2026-02-20 22:46 47.50421 8.51601 2782 ft 175 kts 330°
2026-02-20 22:46 47.51559 8.50756 3017 ft 191 kts 329°
2026-02-20 22:46 47.52684 8.49602 3284 ft 203 kts 313°
2026-02-20 22:46 47.53526 8.47801 3466 ft 224 kts 289°
2026-02-20 22:47 47.53772 8.45454 3725 ft 241 kts 264°
2026-02-20 22:47 47.53276 8.43042 4244 ft 250 kts 246°
2026-02-20 22:47 47.52494 8.40711 4857 ft 255 kts 241°
2026-02-20 22:47 47.51322 8.38724 5490 ft 262 kts 215°
2026-02-20 22:48 47.49608 8.37719 6169 ft 269 kts 196°
2026-02-20 22:48 47.47789 8.37162 6829 ft 273 kts 194°
2026-02-20 22:48 47.45908 8.36635 7470 ft 276 kts 194°
2026-02-20 22:48 47.43988 8.36086 8126 ft 278 kts 194°
2026-02-20 22:49 47.43726 8.36010 8203 ft 279 kts 194°
2026-02-20 22:49 47.41845 8.35456 8782 ft 283 kts 194°
2026-02-20 22:49 47.39965 8.34595 9340 ft 283 kts 210°
2026-02-20 22:49 47.38442 8.32823 9940 ft 280 kts 234°
2026-02-20 22:50 47.37391 8.30392 10388 ft 287 kts 240°
2026-02-20 22:50 47.36083 8.28080 10630 ft 303 kts 222°
2026-02-20 22:50 47.34235 8.26524 10898 ft 320 kts 199°
2026-02-20 22:50 47.31961 8.26265 11159 ft 339 kts 172°
2026-02-20 22:51 47.29676 8.27399 11434 ft 354 kts 159°
2026-02-20 22:51 47.27431 8.29042 11694 ft 367 kts 153°
2026-02-20 22:51 47.25195 8.30966 11956 ft 378 kts 150°
2026-02-20 22:51 47.22956 8.33109 12286 ft 387 kts 148°
2026-02-20 22:52 47.20737 8.35384 12723 ft 391 kts 146°
2026-02-20 22:52 47.19263 8.36941 13051 ft 394 kts 146°
2026-02-20 22:52 47.16290 8.40125 13703 ft 398 kts 146°
2026-02-20 22:52 47.14798 8.41725 14037 ft 400 kts 146°
2026-02-20 22:53 47.12542 8.44134 14539 ft 403 kts 146°
2026-02-20 22:53 47.10262 8.46554 15029 ft 406 kts 146°
2026-02-20 22:53 47.07956 8.48989 15519 ft 409 kts 146°
2026-02-20 22:53 47.05670 8.51495 15981 ft 413 kts 141°
2026-02-20 22:54 47.03698 8.54598 16420 ft 419 kts 127°
2026-02-20 22:54 47.02079 8.58171 16858 ft 423 kts 122°
2026-02-20 22:54 47.00615 8.61917 17308 ft 426 kts 119°
2026-02-20 22:54 46.99226 8.65770 17759 ft 428 kts 118°
2026-02-20 22:55 46.97858 8.69675 18164 ft 432 kts 118°
2026-02-20 22:55 46.96486 8.73594 18519 ft 436 kts 118°
2026-02-20 22:55 46.95085 8.77555 18903 ft 439 kts 118°
2026-02-20 22:55 46.93668 8.81517 19274 ft 442 kts 118°
2026-02-20 22:56 46.92217 8.85520 19589 ft 446 kts 119°
2026-02-20 22:56 46.90755 8.89521 19998 ft 448 kts 119°
2026-02-20 22:56 46.89275 8.93558 20331 ft 451 kts 119°
2026-02-20 22:56 46.87793 8.97603 20697 ft 453 kts 119°
2026-02-20 22:57 46.86298 9.01674 21113 ft 455 kts 119°
2026-02-20 22:57 46.84792 9.05766 21330 ft 459 kts 119°
2026-02-20 22:57 46.83271 9.09891 21597 ft 463 kts 119°
2026-02-20 22:57 46.81760 9.13988 22012 ft 464 kts 119°
2026-02-20 22:58 46.80209 9.18185 22320 ft 466 kts 119°
2026-02-20 22:58 46.78662 9.22361 22670 ft 467 kts 119°
2026-02-20 22:58 46.77118 9.26524 23076 ft 467 kts 119°
2026-02-20 22:58 46.75585 9.30651 23379 ft 470 kts 119°
2026-02-20 22:59 46.74005 9.34901 23601 ft 473 kts 119°
2026-02-20 22:59 46.72449 9.39079 23898 ft 475 kts 119°
2026-02-20 22:59 46.70872 9.43306 24205 ft 476 kts 119°
2026-02-20 22:59 46.69287 9.47552 24560 ft 477 kts 119°
2026-02-20 23:00 46.67700 9.51795 24827 ft 479 kts 119°
2026-02-20 23:00 46.66103 9.56061 25061 ft 481 kts 119°
2026-02-20 23:00 46.64493 9.60350 25350 ft 483 kts 120°
2026-02-20 23:00 46.62874 9.64657 25563 ft 486 kts 120°
2026-02-20 23:01 46.61245 9.68981 25668 ft 490 kts 120°
2026-02-20 23:01 46.59596 9.73342 25792 ft 494 kts 120°
2026-02-20 23:01 46.57942 9.77733 26006 ft 495 kts 119°
2026-02-20 23:01 46.56281 9.82128 26246 ft 496 kts 120°
2026-02-20 23:02 46.54615 9.86523 26431 ft 499 kts 120°
2026-02-20 23:02 46.52938 9.90938 26670 ft 500 kts 120°
2026-02-20 23:02 46.51257 9.95354 26921 ft 501 kts 120°
2026-02-20 23:02 46.49562 9.99797 27020 ft 504 kts 120°
2026-02-20 23:03 46.47856 10.04259 27197 ft 506 kts 120°
2026-02-20 23:03 46.46183 10.08753 27360 ft 508 kts 118°
2026-02-20 23:03 46.44591 10.13337 27615 ft 509 kts 117°
2026-02-20 23:03 46.43039 10.17945 27767 ft 511 kts 116°
2026-02-20 23:04 46.41485 10.22583 27972 ft 512 kts 116°
2026-02-20 23:04 46.39920 10.27220 28133 ft 514 kts 117°
2026-02-20 23:04 46.38332 10.31876 28322 ft 515 kts 117°
2026-02-20 23:04 46.36750 10.36470 28519 ft 517 kts 117°
2026-02-20 23:05 46.35145 10.41102 28851 ft 515 kts 117°
2026-02-20 23:05 46.33536 10.45728 29104 ft 515 kts 117°
2026-02-20 23:05 46.31919 10.50364 29308 ft 516 kts 117°
2026-02-20 23:05 46.30299 10.54998 29545 ft 516 kts 117°
2026-02-20 23:06 46.28681 10.59620 29825 ft 515 kts 117°
2026-02-20 23:06 46.27065 10.64233 30054 ft 515 kts 117°
2026-02-20 23:06 46.25448 10.68837 30434 ft 511 kts 117°
2026-02-20 23:06 46.23835 10.73426 30631 ft 512 kts 117°
2026-02-20 23:07 46.22220 10.78009 30817 ft 513 kts 118°
2026-02-20 23:07 46.20595 10.82614 30977 ft 514 kts 118°
2026-02-20 23:07 46.17357 10.91772 31004 ft 511 kts 118°
2026-02-20 23:08 46.14115 11.00904 31042 ft 509 kts 118°
2026-02-20 23:08 46.12504 11.05433 31173 ft 509 kts 118°
2026-02-20 23:08 46.10886 11.09969 31471 ft 506 kts 118°
2026-02-20 23:09 46.09307 11.14392 31883 ft 501 kts 118°
2026-02-20 23:09 46.07714 11.18848 32145 ft 500 kts 118°
2026-02-20 23:09 46.06119 11.23301 32338 ft 499 kts 118°
2026-02-20 23:09 46.04525 11.27743 32573 ft 498 kts 118°
2026-02-20 23:10 46.02929 11.32182 32696 ft 500 kts 118°
2026-02-20 23:10 46.01332 11.36619 32869 ft 500 kts 118°
2026-02-20 23:10 45.99733 11.41053 33092 ft 498 kts 118°
2026-02-20 23:10 45.98132 11.45484 33221 ft 499 kts 118°
2026-02-20 23:11 45.94912 11.54375 33363 ft 503 kts 118°
2026-02-20 23:11 45.93292 11.58839 33549 ft 503 kts 118°
2026-02-20 23:11 45.91672 11.63294 33714 ft 502 kts 118°
2026-02-20 23:12 45.90053 11.67741 33905 ft 501 kts 118°
2026-02-20 23:12 45.88459 11.72111 34166 ft 498 kts 118°
2026-02-20 23:12 45.86854 11.76504 34295 ft 499 kts 118°
2026-02-20 23:12 45.85237 11.80920 34396 ft 500 kts 118°
2026-02-20 23:13 45.83621 11.85330 34604 ft 498 kts 118°
2026-02-20 23:13 45.82015 11.89704 34849 ft 494 kts 118°
2026-02-20 23:13 45.80422 11.94035 35307 ft 486 kts 118°
2026-02-20 23:13 45.78858 11.98284 35708 ft 479 kts 118°
2026-02-20 23:14 45.77304 12.02496 35935 ft 476 kts 118°
2026-02-20 23:14 45.75759 12.06678 36087 ft 475 kts 118°
2026-02-20 23:14 45.74212 12.10858 36206 ft 474 kts 118°
2026-02-20 23:14 45.72664 12.15031 36320 ft 474 kts 119°
2026-02-20 23:15 45.69572 12.23355 36453 ft 474 kts 119°
2026-02-20 23:15 45.66469 12.31680 36583 ft 475 kts 119°
2026-02-20 23:16 45.63371 12.39968 36701 ft 476 kts 119°
2026-02-20 23:16 45.60246 12.48304 36798 ft 477 kts 119°
2026-02-20 23:17 45.57108 12.56649 36892 ft 478 kts 119°
2026-02-20 23:17 45.53955 12.65008 36993 ft 479 kts 119°